Lid_Strength_Index
1 0 1 -0 -1 -1 -1 -1 -1 -1 1 2 1 2 2 2 2 4 5 2 4 1 4 9 8 9 9 10 10 11 15 17 16 15 12 11 11 11 9 9 8 6 6 5 3
1 1 1 1 0 -1 -1 -1 -1 -1 -0 1 1 2 2 2 6 8 3 -0 -0 1 8 9 9 10 11 11 11 12 16 15 15 14 12 11 11 10 10 8 8 8 6 3 2
1 1 1 1 0 -1 -1 -1 -1 -0 0 0 1 2 2 3 10 10 2 0 -0 3 8 9 9 10 12 11 12 13 14 14 14 14 12 11 12 10 10 10 8 7 6 4 4
1 1 1 1 1 0 -1 -1 -1 -0 -0 1 1 2 2 6 11 9 2 0 -1 5 7 9 10 11 13 13 12 14 13 14 14 14 13 11 11 11 10 10 9 5 4 4 4
1 0 1 1 1 1 -1 -1 -1 -0 -0 -0 1 1 5 10 10 7 0 -0 3 7 8 10 11 12 13 13 13 14 14 13 14 14 14 11 11 12 10 10 7 4 4 5 4
0 1 1 1 1 1 -0 -1 -1 -0 -0 -0 0 1 8 12 7 4 3 4 6 9 10 9 10 9 10 12 12 14 14 15 14 15 15 13 12 12 11 8 6 5 5 5 4
-0 1 1 1 2 1 1 -1 -1 -0 -0 -0 0 5 9 9 6 3 4 6 7 9 11 9 8 9 9 10 8 11 15 15 15 15 15 14 14 11 12 8 7 6 6 5 5
-1 1 0 1 1 1 1 0 -0 -0 -0 -0 1 6 10 6 4 5 6 7 8 9 9 9 9 10 9 11 13 15 16 17 16 14 15 15 15 11 11 8 7 7 6 6 5
-1 0 0 1 2 1 0 -0 -0 -1 -0 0 5 8 10 4 6 5 6 8 8 9 9 7 9 13 12 15 17 17 19 18 16 15 15 15 14 13 12 9 9 7 7 6 6
-1 0 1 0 1 1 0 -0 0 -0 1 3 4 9 8 10 7 7 7 6 9 9 10 11 13 15 16 17 20 19 19 19 18 16 16 16 13 12 13 12 11 10 7 6 6
-1 2 1 0 1 1 1 2 5 6 5 9 10 11 10 8 6 9 8 9 10 11 14 14 15 17 16 15 15 16 17 19 18 16 16 16 15 13 13 14 13 13 12 9 6
-1 -0 1 0 1 1 1 5 4 5 10 9 8 8 8 7 10 8 7 11 12 15 14 15 17 14 13 14 15 17 18 19 18 16 16 17 16 13 13 13 12 12 13 12 10
1 1 2 0 1 2 3 4 4 4 10 11 9 9 8 8 11 10 9 11 12 14 15 15 14 12 13 15 16 18 17 19 18 17 17 18 18 17 14 13 12 12 12 12 11
1 1 2 1 3 2 4 4 4 5 13 14 12 9 8 8 10 8 8 10 13 15 14 14 13 13 15 16 16 19 16 17 16 18 20 18 21 19 17 14 14 12 12 11 11
1 1 2 1 3 4 3 4 4 8 20 12 12 7 8 9 10 9 8 10 14 14 14 15 14 14 15 15 15 16 15 16 18 19 20 21 21 19 19 17 14 12 11 11 10
1 1 3 1 2 2 3 4 6 15 20 14 11 12 11 11 11 10 10 10 11 13 14 13 12 13 13 14 14 15 16 17 19 20 22 20 20 21 19 16 14 13 13 13 13
1 2 3 1 5 1 4 7 15 18 13 15 14 12 13 14 13 11 12 14 14 17 17 16 15 14 13 15 15 16 17 21 22 23 22 21 22 18 16 16 15 14 14 13 14
2 3 2 1 1 3 6 11 18 15 15 13 13 12 14 13 13 12 13 14 14 15 17 17 19 15 14 15 16 17 17 21 24 24 22 20 22 19 15 15 14 14 14 13 13
2 4 3 1 2 4 8 15 15 15 14 14 13 15 16 13 13 13 14 14 13 15 17 18 18 15 14 14 13 17 18 16 21 28 23 21 20 17 14 15 15 15 14 13 13
6 4 4 2 3 5 11 13 16 12 12 12 16 14 17 16 16 15 15 13 14 14 13 15 17 14 14 13 14 15 13 17 19 24 25 23 21 19 17 15 15 15 14 13 13
7 7 3 3 4 8 14 14 14 11 11 13 15 15 15 16 16 16 16 15 13 14 13 14 15 16 14 15 16 16 17 17 17 19 23 24 21 17 15 15 15 14 14 13 13
7 12 3 4 11 11 13 13 11 12 11 13 12 14 14 14 15 15 16 15 12 13 14 14 14 17 16 14 13 15 15 15 17 21 21 21 20 17 16 15 15 14 14 13 12
13 13 4 5 14 14 11 13 12 12 12 13 14 13 12 13 15 14 15 11 11 12 13 12 15 19 16 14 14 16 16 15 17 18 20 22 20 15 15 15 14 14 15 13 13
14 14 11 8 10 11 13 15 14 10 13 12 13 12 12 13 13 14 14 11 10 10 8 9 13 15 18 17 15 16 16 15 15 18 19 19 19 15 15 14 14 13 14 14 13
14 14 12 15 13 11 12 14 14 14 13 12 13 13 13 15 14 15 13 12 11 9 10 10 14 15 16 15 14 15 15 15 15 15 17 16 17 16 15 14 14 14 13 13 13
14 13 12 13 11 12 12 14 14 14 13 14 14 13 12 15 14 16 14 14 14 13 12 13 19 16 19 15 15 16 14 14 14 14 14 15 17 15 14 15 14 13 13 12 12
12 10 10 12 13 13 13 14 13 12 12 12 12 13 14 13 11 10 9 10 11 11 12 13 17 19 22 16 16 17 16 15 15 14 14 16 15 15 15 15 14 13 13 12 12